Погода в Эверетте

США     47°56′48″N   122°14′56″W
темп.,
°C
ветер,
м/с
пор.,
м/с
влажн.,
%
обл.,
%
осадки,
мм/ч
давл.,
гПа
погр.,
м
19 апреля, пн
пн1923:00+9всв017315 0.0 102110
02:00+8вюв11805 0.0 102211
05:00+8юв11834 0.0 102312
08:00+11ююв11695 0.0 1024135
11:00+19ююв12466 0.0 1024814
14:00+22юз12356 0.0 10231548
17:00+21сз223824 0.0 10211193
20:00+12сз226874 0.0 102124
20 апреля, вт
вт2023:00+9с238110 0.0 102263
02:00+8в11865 0.0 102210
05:00+7всв11914 0.0 102310
08:00+11всв00764 0.0 1023143
11:00+17сз22502 0.0 1022772
14:00+19сз33406 0.0 1020851
17:00+18ссз35475 0.0 1019549
20:00+11сз22785 0.0 101821
21 апреля, ср
ср2123:00+9ссв11835 0.0 101911
02:00+8в11885 0.0 101910
05:00+7юв11936 0.0 101910
08:00+11вюв007672 0.0 1019143
11:00+18зсз11523 0.0 1018812
14:00+20сз22446 0.0 10161408
17:00+18ссз335119 0.0 1014476
20:00+13сз2475100 0.0 101387
22 апреля, чт
чт2223:00+9с128797 0.0 101336
02:00+10ююз138593 0.0 1013130
05:00+8ю249368 0.0 1013161
08:00+10юв2680100 0.0 1014565
11:00+10ююв3475100 0.1 1014832
14:00+12ююв346799 0.0 10141040
17:00+13юв346137 0.0 1013967
20:00+10в24785 0.0 101368
23 апреля, пт
пт2323:00+7юв22874 0.0 101426
02:00+6юв249599 0.0 1015109
05:00+8ююв3982100 0.0 1016426
08:00+9ююв3975100 0.0 1016587
11:00+12ю3662100 0.0 10151120
14:00+16ююз3452100 0.0 10141602
17:00+14зюз2358100 0.0 10131077
20:00+9ссз2784100 0.0 1013211